WP3OF-1 Weather Reports


time (UTC)temp
F
wind
direction
speed
knots
gust
knots
rain 1hr
in
rain 24hr
in
rain mn
in
humidity
%
barometer
mb
20260507195847 81 43 9.6 13.9 0.00 0.00 0.00 77 1015.8
20260507195344 82 73 11.3 13.0 0.00 0.00 0.00 76 1016.1
20260507194841 82 51 9.6 13.9 0.00 0.00 0.00 76 1015.9
20260507194337 82 92 9.6 13.9 0.00 0.00 0.00 75 1016.1
20260507193834 81 63 9.6 13.0 0.00 0.00 0.00 77 1016.1
20260507193331 81 74 7.8 14.8 0.00 0.00 0.00 77 1016.1
20260507192827 81 63 9.6 13.0 0.00 0.00 0.00 77 1016.2
20260507192324 81 90 8.7 12.2 0.00 0.00 0.00 77 1016.3
20260507191820 81 112 6.1 11.3 0.00 0.00 0.00 78 1016.4
20260507191316 81 95 8.7 12.2 0.00 0.00 0.00 77 1016.4
20260507190814 82 74 7.0 13.0 0.00 0.00 0.00 77 1016.4
20260507190312 81 78 7.8 11.3 0.00 0.00 0.00 77 1016.4
20260507185810 81 55 7.8 12.2 0.00 0.00 0.00 77 1016.5
20260507185307 82 105 8.7 11.3 0.00 0.00 0.00 77 1016.4
20260507184804 83 94 11.3 13.0 0.00 0.00 0.00 74 1016.6
20260507184302 82 61 6.1 9.6 0.00 0.00 0.00 76 1016.5
20260507183758 82 128 7.8 9.6 0.00 0.00 0.00 76 1016.4
20260507183256 83 126 7.0 11.3 0.00 0.00 0.00 75 1016.7
20260507182753 83 92 8.7 11.3 0.00 0.00 0.00 75 1016.6
20260507182247 83 84 7.0 8.7 0.00 0.00 0.00 75 1016.7
20260507181745 82 76 5.2 11.3 0.00 0.00 0.00 76 1017.0
20260507181236 83 107 7.8 9.6 0.00 0.00 0.00 76 1016.7
20260507180732 81 87 8.7 13.0 0.00 0.00 0.00 77 1017.1
20260507180229 81 57 9.6 9.6 0.00 0.00 0.00 78 1017.0
20260507175725 81 78 5.2 14.8 0.00 0.00 0.00 77 1016.9
20260507175223 81 60 7.0 11.3 0.00 0.00 0.00 78 1017.0
20260507174720 82 90 7.0 14.8 0.00 0.00 0.00 77 1017.3
20260507174217 81 66 7.8 12.2 0.00 0.00 0.00 78 1017.2
20260507173715 82 78 8.7 12.2 0.00 0.00 0.00 76 1017.3
20260507173211 82 58 7.8 12.2 0.00 0.00 0.00 76 1017.1
20260507172708 82 81 8.7 11.3 0.00 0.00 0.00 77 1017.3
20260507172204 82 88 12.2 13.9 0.00 0.00 0.00 75 1017.4
20260507171659 82 53 9.6 9.6 0.00 0.00 0.00 78 1017.5
20260507171156 0 0.0 0.0 0.00 0.00 0.00 1017.4
20260507170653 82 74 8.7 11.3 0.00 0.00 0.00 77 1017.6
20260507170150 82 74 8.7 11.3 0.00 0.00 0.00 77 1017.5
20260507165645 82 104 6.1 7.8 0.00 0.00 0.00 77 1017.9
20260507165142 82 82 7.8 13.9 0.00 0.00 0.00 76 1017.9
20260507164638 83 89 7.8 13.0 0.00 0.00 0.00 75 1017.9
20260507164136 83 115 7.0 11.3 0.00 0.00 0.00 75 1018.1
20260507163633 83 111 9.6 12.2 0.00 0.00 0.00 75 1017.9
20260507163130 83 99 11.3 13.9 0.00 0.00 0.00 76 1018.0
20260507162626 83 98 9.6 14.8 0.00 0.00 0.00 74 1018.2
20260507162122 83 128 9.6 13.9 0.00 0.00 0.00 73 1018.2
20260507161618 82 88 7.0 12.2 0.00 0.00 0.00 73 1018.1
20260507161115 83 95 8.7 14.8 0.00 0.00 0.00 73 1018.1
20260507160612 83 107 8.7 9.6 0.00 0.00 0.00 74 1018.1
20260507160109 82 89 7.0 14.8 0.00 0.00 0.00 75 1018.1
20260507155604 82 97 7.0 8.7 0.00 0.00 0.00 72 1018.2
20260507155101 81 114 10.4 13.9 0.00 0.00 0.00 77 1018.2
20260507154558 82 81 13.9 16.5 0.00 0.00 0.00 76 1018.2
20260507154055 82 140 9.6 13.0 0.00 0.00 0.00 77 1018.4
20260507153552 82 106 13.9 15.6 0.00 0.00 0.00 72 1018.6
20260507153048 82 128 10.4 13.0 0.00 0.00 0.00 76 1018.4
20260507152544 82 131 14.8 16.5 0.00 0.00 0.00 75 1018.6
20260507152041 82 102 8.7 16.5 0.00 0.00 0.00 75 1018.4
20260507151537 81 110 11.3 18.2 0.00 0.00 0.00 76 1018.7
20260507151034 82 97 12.2 14.8 0.00 0.00 0.00 74 1018.7
20260507150531 82 94 7.8 13.9 0.00 0.00 0.00 73 1018.6
20260507150028 81 118 8.7 14.8 0.00 0.00 0.00 75 1018.4
20260507145527 82 132 12.2 16.5 0.00 0.00 0.00 76 1018.6
20260507145026 82 90 8.7 14.8 0.00 0.00 0.00 75 1018.6
20260507144522 82 116 7.8 8.7 0.00 0.00 0.00 73 1018.6
20260507144020 82 116 7.8 8.7 0.00 0.00 0.00 73 1018.5
20260507143517 81 93 9.6 13.0 0.00 0.00 0.00 77 1018.8
20260507143014 81 117 7.8 11.3 0.00 0.00 0.00 77 1018.8
20260507142509 81 116 10.4 13.9 0.00 0.00 0.00 78 1018.7
20260507142007 82 97 7.8 12.2 0.00 0.00 0.00 75 1018.7
20260507141502 82 125 9.6 16.5 0.00 0.00 0.00 77 1018.6
20260507140959 82 134 9.6 12.2 0.00 0.00 0.00 77 1019.0
20260507140456 82 123 9.6 12.2 0.00 0.00 0.00 78 1018.7
20260507135953 82 96 10.4 13.9 0.00 0.00 0.00 77 1019.0
20260507135450 82 69 9.6 14.8 0.00 0.00 0.00 77 1018.9
20260507134948 85 106 8.7 13.0 0.00 0.00 0.00 73 1019.0
20260507134444 84 131 7.8 12.2 0.00 0.00 0.00 73 1018.8
20260507133940 84 112 11.3 15.6 0.00 0.00 0.00 70 1018.7
20260507133436 83 107 12.2 18.2 0.00 0.00 0.00 73 1018.9
20260507132935 83 108 11.3 13.9 0.00 0.00 0.00 71 1018.8
20260507132431 82 95 7.8 11.3 0.00 0.00 0.00 76 1018.8
20260507131927 82 120 7.8 12.2 0.00 0.00 0.00 75 1018.6
20260507131424 82 118 11.3 13.9 0.00 0.00 0.00 73 1018.6
20260507130921 83 73 5.2 6.1 0.00 0.00 0.00 75 1018.5
20260507130418 82 107 9.6 12.2 0.00 0.00 0.00 75 1018.8
20260507125917 82 117 7.8 15.6 0.00 0.00 0.00 76 1018.7
20260507125415 82 114 13.9 16.5 0.00 0.00 0.00 76 1018.4
20260507124912 82 121 9.6 12.2 0.00 0.00 0.00 76 1018.3
20260507124408 81 89 13.0 14.8 0.00 0.00 0.00 78 1018.2
20260507123906 81 107 13.9 14.8 0.00 0.00 0.00 79 1018.2
20260507123403 81 106 13.0 15.6 0.00 0.00 0.00 78 1018.0
20260507122900 81 90 8.7 12.2 0.00 0.00 0.00 79 1018.0
20260507122355 81 110 8.7 12.2 0.00 0.00 0.00 79 1018.1
20260507121851 80 121 10.4 13.9 0.00 0.00 0.00 79 1018.0
20260507121347 80 99 13.0 16.5 0.00 0.00 0.00 80 1017.8
20260507120844 80 102 13.0 16.5 0.00 0.00 0.00 81 1017.7
20260507120340 80 103 13.9 16.5 0.00 0.00 0.00 82 1017.9
20260507115836 80 81 6.1 9.6 0.00 0.00 0.00 83 1017.9
20260507115332 79 70 9.6 15.6 0.00 0.00 0.00 83 1018.1
20260507114828 80 103 7.8 11.3 0.00 0.00 0.00 84 1017.9
20260507114325 80 90 7.0 12.2 0.00 0.00 0.00 84 1017.9
20260507113823 79 140 9.6 12.2 0.00 0.00 0.00 84 1017.6
20260507113319 80 110 13.0 14.8 0.00 0.00 0.00 83 1017.6
20260507112817 80 102 10.4 13.0 0.00 0.00 0.00 83 1017.5
20260507112314 79 107 10.4 13.0 0.00 0.00 0.00 83 1017.2
20260507111812 80 104 10.4 12.2 0.00 0.00 0.00 83 1017.4
20260507111308 80 104 10.4 12.2 0.00 0.00 0.00 83 1017.5
20260507110804 79 103 7.0 11.3 0.00 0.00 0.00 84 1017.2
20260507110301 79 109 9.6 11.3 0.00 0.00 0.00 84 1017.5
20260507105758 79 93 8.7 8.7 0.00 0.00 0.00 84 1017.5
20260507105254 79 96 10.4 12.2 0.00 0.00 0.00 84 1017.3
20260507104751 78 96 8.7 12.2 0.00 0.00 0.00 85 1017.3
20260507104248 78 85 9.6 13.0 0.00 0.00 0.00 85 1017.5
20260507103744 78 105 8.7 11.3 0.00 0.00 0.00 86 1017.3
20260507103240 78 101 8.7 12.2 0.00 0.00 0.00 86 1017.2
20260507102737 78 113 10.4 13.0 0.00 0.00 0.00 87 1017.2
20260507102233 77 102 9.6 13.0 0.00 0.00 0.00 87 1017.0
20260507101730 77 86 7.8 14.8 0.00 0.00 0.00 87 1017.0
20260507101225 77 98 9.6 13.0 0.00 0.00 0.00 88 1017.0
20260507100722 77 85 10.4 13.0 0.00 0.00 0.00 88 1016.8
20260507100221 77 103 12.2 13.9 0.00 0.00 0.00 88 1017.1
20260507095718 77 110 7.8 12.2 0.00 0.00 0.00 89 1017.1
20260507095214 77 102 8.7 11.3 0.00 0.00 0.00 89 1017.1
20260507094711 76 90 10.4 13.0 0.00 0.00 0.00 89 1016.9
20260507094208 76 86 11.3 12.2 0.00 0.00 0.00 89 1017.1
20260507093705 76 100 11.3 12.2 0.00 0.00 0.00 89 1017.0
20260507093204 76 88 9.6 11.3 0.00 0.00 0.00 90 1017.0
20260507092701 76 105 7.8 13.0 0.00 0.00 0.00 89 1017.2
20260507092157 76 76 7.8 9.6 0.00 0.00 0.00 89 1016.9
20260507091654 76 103 9.6 12.2 0.00 0.00 0.00 89 1017.0
20260507091150 76 99 9.6 12.2 0.00 0.00 0.00 89 1017.1
20260507090645 76 101 7.8 11.3 0.00 0.00 0.00 89 1016.9
20260507090143 76 103 9.6 11.3 0.00 0.00 0.00 89 1016.9
20260507085640 76 87 10.4 11.3 0.00 0.00 0.00 90 1016.9
20260507085136 76 76 11.3 12.2 0.00 0.00 0.00 90 1017.0
20260507084633 76 90 10.4 13.0 0.00 0.00 0.00 90 1016.9
20260507084130 76 96 7.8 12.2 0.00 0.00 0.00 89 1017.0
20260507083627 76 92 10.4 12.2 0.00 0.00 0.00 90 1016.8
20260507083124 76 91 7.0 9.6 0.00 0.00 0.00 89 1016.9
20260507082619 76 92 6.1 8.7 0.00 0.00 0.00 89 1017.0
20260507082116 76 110 6.1 8.7 0.00 0.00 0.00 89 1017.0
20260507081613 76 101 8.7 9.6 0.00 0.00 0.00 89 1016.9
20260507081109 77 99 7.8 11.3 0.00 0.00 0.00 89 1016.9
20260507080606 77 92 8.7 11.3 0.00 0.00 0.00 88 1016.9
20260507075557 77 60 7.8 11.3 0.00 0.00 0.00 87 1016.8
20260507075054 77 87 7.8 11.3 0.00 0.00 0.00 87 1016.8
20260507074551 77 98 9.6 12.2 0.00 0.00 0.00 86 1016.8
20260507074049 76 102 10.4 13.0 0.00 0.00 0.00 86 1017.1
20260507073544 76 100 7.8 11.3 0.00 0.00 0.00 86 1017.0
20260507073041 76 97 8.7 13.0 0.00 0.00 0.00 87 1017.0
20260507072539 76 88 8.7 12.2 0.00 0.00 0.00 87 1016.9
20260507072036 76 81 7.8 11.3 0.00 0.00 0.00 88 1017.0
20260507071533 76 83 7.8 11.3 0.00 0.00 0.00 89 1016.9
20260507071025 76 92 10.4 12.2 0.00 0.00 0.00 89 1017.0
20260507070521 76 93 10.4 13.0 0.00 0.00 0.00 88 1016.8
20260507070018 76 87 9.6 12.2 0.00 0.00 0.00 88 1017.3
20260507065514 76 95 11.3 13.0 0.00 0.00 0.00 88 1016.9
20260507065012 76 100 7.8 11.3 0.00 0.00 0.00 89 1017.0
20260507064510 76 105 10.4 12.2 0.00 0.00 0.00 89 1017.2
20260507064008 77 106 8.7 13.9 0.00 0.00 0.00 89 1017.1
20260507063505 77 102 8.7 14.8 0.00 0.00 0.00 90 1017.4
20260507063002 77 85 8.7 13.0 0.00 0.00 0.00 90 1017.4
20260507062458 77 93 8.7 9.6 0.00 0.00 0.00 90 1017.3
20260507061956 77 76 8.7 12.2 0.00 0.00 0.00 90 1017.4
20260507061454 77 105 7.8 9.6 0.00 0.00 0.00 90 1017.5
20260507060952 77 96 7.8 11.3 0.00 0.00 0.00 89 1017.6
20260507060449 77 96 6.1 8.7 0.00 0.00 0.00 89 1017.9
20260507055945 78 94 8.7 11.3 0.00 0.00 0.00 89 1017.6
20260507055440 78 101 10.4 11.3 0.00 0.00 0.00 89 1017.9
20260507054938 78 102 8.7 11.3 0.00 0.00 0.00 88 1017.9
20260507054434 78 86 8.7 12.2 0.00 0.00 0.00 88 1017.9
20260507053931 77 97 7.8 11.3 0.00 0.00 0.00 89 1017.8
20260507053428 77 96 7.8 7.8 0.00 0.00 0.00 89 1018.1
20260507052926 77 86 7.0 7.8 0.00 0.00 0.00 88 1018.1
20260507052424 77 100 8.7 8.7 0.00 0.00 0.00 88 1018.1
20260507051920 77 107 6.1 8.7 0.00 0.00 0.00 88 1018.1
20260507051418 77 88 7.0 9.6 0.00 0.00 0.00 88 1018.4
20260507050915 77 95 6.1 8.7 0.00 0.00 0.00 88 1018.6
20260507050411 77 91 8.7 11.3 0.00 0.00 0.00 88 1018.4
20260507045908 77 90 7.0 8.7 0.00 0.00 0.00 88 1018.4
20260507045405 77 88 9.6 9.6 0.00 0.00 0.00 88 1018.7
20260507044902 78 101 7.8 8.7 0.00 0.00 0.00 88 1018.7
20260507044358 78 86 7.0 7.8 0.00 0.00 0.00 88 1018.8
20260507043854 78 74 6.1 8.7 0.00 0.00 0.00 87 1019.0
20260507043351 78 56 5.2 9.6 0.00 0.00 0.00 87 1018.9
20260507042847 78 76 9.6 12.2 0.00 0.00 0.00 87 1019.2
20260507042344 78 93 7.8 11.3 0.00 0.00 0.00 87 1019.1
20260507041840 78 96 8.7 9.6 0.00 0.00 0.00 87 1019.0
20260507041337 78 80 7.0 9.6 0.00 0.00 0.00 87 1019.1
20260507040834 78 95 8.7 11.3 0.00 0.00 0.00 87 1019.0
20260507040330 78 70 8.7 12.2 0.00 0.00 0.00 87 1019.0
20260507035826 78 105 7.0 11.3 0.00 0.00 0.00 87 1019.1
20260507035322 78 92 7.8 9.6 0.00 0.00 0.00 87 1019.2
20260507034820 78 84 7.8 12.2 0.00 0.00 0.00 87 1019.4
20260507034316 78 114 7.8 12.2 0.00 0.00 0.00 87 1019.6
20260507033815 78 106 8.7 12.2 0.00 0.00 0.00 87 1019.4
20260507033312 78 100 7.0 9.6 0.00 0.00 0.00 87 1019.6
20260507032809 78 115 8.7 9.6 0.00 0.00 0.00 87 1019.5
20260507032306 78 91 7.0 11.3 0.00 0.00 0.00 86 1019.4
20260507031801 78 85 6.1 9.6 0.00 0.00 0.00 86 1019.5
20260507031258 78 74 7.8 11.3 0.00 0.00 0.00 86 1019.3
20260507030755 78 95 7.8 9.6 0.00 0.00 0.00 86 1019.4
20260507030253 78 101 10.4 14.8 0.00 0.00 0.00 85 1019.5
20260507025750 78 78 7.8 11.3 0.00 0.00 0.00 85 1019.4
20260507025246 78 97 7.8 9.6 0.00 0.00 0.00 85 1019.3
20260507024745 78 94 10.4 13.0 0.00 0.00 0.00 85 1019.5
20260507024242 78 104 8.7 11.3 0.00 0.00 0.00 85 1019.3
20260507023737 78 82 9.6 12.2 0.00 0.00 0.00 85 1019.5
20260507023234 78 107 9.6 13.0 0.00 0.00 0.00 85 1019.5
20260507022732 78 108 9.6 11.3 0.00 0.00 0.00 85 1019.6
20260507022227 78 80 8.7 9.6 0.00 0.00 0.00 86 1019.3
20260507021724 78 87 7.8 9.6 0.00 0.00 0.00 86 1019.5
20260507021219 78 81 7.0 8.7 0.00 0.00 0.00 86 1019.6
20260507020718 78 86 7.0 9.6 0.00 0.00 0.00 86 1019.4
20260507020214 78 85 8.7 11.3 0.00 0.00 0.00 86 1019.5
20260507015712 78 81 7.0 9.6 0.00 0.00 0.00 86 1019.4
20260507015209 78 99 8.7 8.7 0.00 0.00 0.00 86 1019.3
20260507014705 78 68 7.8 8.7 0.00 0.00 0.00 86 1019.4
20260507014201 78 97 8.7 9.6 0.00 0.00 0.00 85 1019.2
20260507013659 78 75 8.7 11.3 0.00 0.00 0.00 85 1019.3
20260507013156 78 94 9.6 13.0 0.00 0.00 0.00 85 1019.2
20260507012653 78 94 10.4 13.0 0.00 0.00 0.00 85 1019.1
20260507012149 78 110 10.4 11.3 0.00 0.00 0.00 85 1019.2
20260507011647 78 98 9.6 12.2 0.00 0.00 0.00 85 1019.0
20260507011143 78 117 7.8 12.2 0.00 0.00 0.00 85 1018.9
20260507010638 78 94 9.6 11.3 0.00 0.00 0.00 86 1019.0
20260507010134 78 85 7.8 11.3 0.00 0.00 0.00 85 1019.0
20260507005631 78 102 7.8 11.3 0.00 0.00 0.00 85 1019.0
20260507005122 78 97 7.8 11.3 0.00 0.00 0.00 85 1018.9
20260507004619 78 101 8.7 13.0 0.00 0.00 0.00 85 1018.8
20260507004117 78 101 9.6 13.0 0.00 0.00 0.00 85 1018.9
20260507003612 78 91 8.7 11.3 0.00 0.00 0.00 85 1018.7
20260507003107 78 96 8.7 13.0 0.00 0.00 0.00 85 1018.7
20260507002604 78 107 8.7 11.3 0.00 0.00 0.00 85 1018.5
20260507002100 78 91 9.6 11.3 0.00 0.00 0.00 86 1018.6
20260507001557 78 92 7.8 13.0 0.00 0.00 0.00 86 1018.4
20260507001054 78 95 10.4 13.0 0.00 0.00 0.00 86 1018.4
20260507000550 78 87 10.4 13.0 0.00 0.00 0.00 86 1018.3
20260507000046 78 93 10.4 12.2 0.00 0.00 0.00 86 1018.3
20260506235544 78 88 7.0 9.6 0.00 0.00 0.00 86 1018.3
20260506235039 78 87 9.6 12.2 0.00 0.00 0.00 86 1018.2
20260506234536 78 89 9.6 13.0 0.00 0.00 0.00 86 1018.1
20260506234028 78 96 8.7 12.2 0.00 0.00 0.00 86 1018.0
20260506233524 78 98 9.6 12.2 0.00 0.00 0.00 86 1018.0
20260506233022 78 88 8.7 9.6 0.00 0.00 0.00 86 1017.9
20260506232517 78 97 7.8 13.0 0.00 0.00 0.00 86 1017.9
20260506232013 78 61 6.1 9.6 0.00 0.00 0.00 86 1017.9
20260506231511 78 97 8.7 11.3 0.00 0.00 0.00 86 1017.7
20260506231008 78 109 7.0 9.6 0.00 0.00 0.00 85 1017.8
20260506230504 78 85 10.4 11.3 0.00 0.00 0.00 85 1017.6
20260506225956 79 97 7.8 13.0 0.00 0.00 0.00 85 1017.6
20260506225453 79 95 7.0 9.6 0.00 0.00 0.00 85 1017.6
20260506224949 79 102 6.1 7.8 0.00 0.00 0.00 85 1017.7
20260506224446 79 101 5.2 7.0 0.00 0.00 0.00 84 1017.5
20260506223943 79 126 8.7 11.3 0.00 0.00 0.00 84 1017.5
20260506223439 79 133 7.8 8.7 0.00 0.00 0.00 84 1017.6
20260506222936 79 89 7.8 8.7 0.00 0.00 0.00 84 1017.3
20260506222433 80 142 5.2 7.0 0.00 0.00 0.00 83 1017.4
20260506221929 80 122 6.1 7.0 0.00 0.00 0.00 83 1017.3
20260506221426 80 135 7.8 11.3 0.00 0.00 0.00 83 1017.1
20260506220925 0 0.0 0.0 0.00 0.00 0.00 1017.4
20260506220420 0 0.0 0.0 0.00 0.00 0.00 1017.3
20260506215916 0 0.0 0.0 0.00 0.00 0.00 1017.3
20260506215412 0 0.0 0.0 0.00 0.00 0.00 1017.3
20260506214908 0 0.0 0.0 0.00 0.00 0.00 1017.1
20260506214406 80 71 9.6 12.2 0.00 0.00 0.00 81 1017.3
20260506213903 80 71 9.6 13.0 0.00 0.00 0.00 81 1017.1
20260506213401 81 99 9.6 13.0 0.00 0.00 0.00 81 1017.1
20260506212858 81 87 7.8 8.7 0.00 0.00 0.00 80 1017.0
20260506212353 81 87 7.8 8.7 0.00 0.00 0.00 80 1016.9
20260506211848 81 122 12.2 16.5 0.00 0.00 0.00 80 1016.7
20260506211345 82 92 9.6 13.0 0.00 0.00 0.00 79 1016.9
20260506210842 82 138 8.7 9.6 0.00 0.00 0.00 78 1016.9
20260506210339 82 131 6.1 8.7 0.00 0.00 0.00 78 1016.9
20260506205836 82 91 8.7 13.9 0.00 0.00 0.00 79 1017.0
20260506205331 82 135 6.1 13.0 0.00 0.00 0.00 78 1016.7
20260506204823 83 105 6.1 13.0 0.00 0.00 0.00 78 1016.8
20260506204320 82 113 10.4 13.9 0.00 0.00 0.00 78 1016.8
20260506203818 82 135 7.8 12.2 0.00 0.00 0.00 78 1016.9
20260506203315 82 130 11.3 12.2 0.00 0.00 0.00 77 1016.7
20260506202812 82 104 8.7 11.3 0.00 0.00 0.00 78 1017.0
20260506202309 83 113 10.4 13.0 0.00 0.00 0.00 75 1016.6
20260506201805 82 95 10.4 13.9 0.00 0.00 0.00 77 1016.8
20260506201303 83 106 8.7 11.3 0.00 0.00 0.00 75 1016.8
20260506200800 83 93 4.3 11.3 0.00 0.00 0.00 76 1016.7
20260506200255 83 102 11.3 13.9 0.00 0.00 0.00 74 1017.0